www.pogodaiklimat.ru

Погода и климат >> Архив погоды >> Россия >> Хабаровский край >> Аян


АРХИВ ПОГОДЫ в Аяне

Время (UTC), дата Ветер
(напр.,м/с)
 
Видим.   Явления Облачность Т
(С)
Тd
(С)
f
(%)
Тe
(С)
Тes
(С)
Комфортность P
(гПа)
Po
(гПа)
Тmin
(С)
Tmax
(С)
R
(мм)
R24
(мм)
S
(см)
12 16.08 СВ 3 500 м туман {дождь} ?/? +12.5 +11.2 92 +11 +11 1020.5 1019.8
15 16.08 С 2 20 км {туман} 10/10 100 м
[St]
+12.4 +10.6 89 +11 +11 1020.5 1019.8
18 16.08 С 3 20 км {туман} 10/10 300 м
[St]
+12.5 +11.2 92 +11 +11 1019.7 1019.0
21 16.08 С 3 20 км 10/10 300 м
[St]
+12.6 +11.3 92 +11 +11 1019.6 1018.8 +12.1 0.5
00 17.08 С 4 20 км 10/10 200 м
[St]
+13.4 +11.7 89 +12 +12 1019.6 1018.9
03 17.08 С 3 50 км 10/0
[Ac und]
+13.6 +11.7 88 +12 +15 1019.1 1018.3
06 17.08 С 3 50 км 10/0
[As trans]
+14.0 +10.9 82 +13 +15 1018.2 1017.4
09 17.08 С 2 50 км 10/0
[As trans]
+13.8 +10.6 81 +13 +13 1017.6 1016.9 +14.1
12 17.08 С 2 50 км 10/0
[Ac und]
+12.5 +10.3 86 +12 +12 1018.0 1017.3
15 17.08 С 3 50 км 10/0
[Ac und]
+13.7 +12.1 90 +12 +12 1018.2 1017.5
18 17.08 С 3 50 км 10/0
[Ac und]
+13.0 +11.8 92 +12 +12 1018.4 1017.7
21 17.08 СВ 5
{11}
20 км 10/10 600 м
[St]
+13.3 +10.7 84 +11 +11 1018.2 1017.5 +12.4
00 18.08 С 4
{12}
20 км {ливн. осадки} 10/10 600 м
[St]
+13.9 +11.0 83 +12 +12 1018.5 1017.8
03 18.08 СВ 6-12
{12}
50 км 10/10 600 м
[Cb cap]
+14.2 +10.0 76 +12 +12 1019.1 1018.4
06 18.08 С 3
{15}
20 км 10/10 600 м
[St]
+14.0 +11.4 84 +13 +13 1018.8 1018.0
09 18.08 С 4 10 км слаб. ливневой дождь 10/10 300 м
[Cb cap]
+13.2 +11.8 91 +11 +11 1017.8 1017.1 +14.7 0.3
12 18.08 С 4 20 км {ливн. осадки} 10/10 300 м
[Cb cap]
+13.3 +10.7 84 +12 +12 1018.3 1017.6
15 18.08 н/о 20
18 18.08 СВ 4 20 км {ливн. осадки} 10/10 300 м
[Cb cap]
+13.3 +11.2 87 +12 +12 1018.5 1017.7
21 18.08 С 3 20 км 10/10 300 м
[Cb cap]
+12.8 +11.2 90 +11 +11 1019.0 1018.3 +12.4 0.9
00 19.08 С 3 20 км {ливн. осадки} 10/10 200 м
[Cb cap]
+13.6 +12.1 91 +12 +12 1019.1 1018.4
03 19.08 СВ 5 10 км ливневой дождь 10/10 200 м
[Cb cap]
+12.6 +11.5 93 +10 +10 1018.8 1018.1
06 19.08 С 3 10 км ливневой дождь 10/10 200 м
[Cb cap]
+12.4 +11.3 93 +11 +11 1019.2 1018.5
09 19.08 С 3 20 км слаб. дождь 10/10 200 м
[Frnb]
+12.1 +11.1 94 +10 +10 1019.1 1018.4 +14.1 3
12 19.08 С 3 20 км {ливн. осадки, дождь} 10/10 100 м
[St]
+12.3 +11.3 94 +11 +11 1019.2 1018.5
15 19.08 СВ 5 10 км слаб. дождь 10/10 100 м
[Frnb Ns]
+11.8 +10.8 94 +9 +9 1019.2 1018.4
18 19.08 С 4 20 км в посл. час дождь 10/10 100 м
[St]
+11.8 +10.9 94 +10 +10 1019.3 1018.6
21 19.08 С 4 500 м в посл. час дождь {туман} туман ?/? +11.8 +11.0 95 +10 +10 1019.2 1018.5 +11.7 1
00 20.08 СВ 5 500 м туман {дождь} ?/? +12.3 +11.4 94 +10 +10 1019.4 1018.6
03 20.08 СВ 5
{11}
4000 м {дождь, морось} 10/0 100 м
[As op]
+12.4 +11.6 95 +10 +11 1019.7 1019.0
06 20.08 С 5
{11}
2000 м дождь {морось} 10/10 100 м
[Frnb Ns]
+12.5 +11.7 95 +10 +10 1019.8 1019.0
09 20.08 С 4 500 м слаб. дождь {туман} туман ?/? +12.4 +11.6 95 +10 +10 1020.2 1019.5 +12.7 9
12 20.08 С 4 500 м дождь {туман} туман ?/? +12.5 +11.8 95 +10 +10 1020.9 1020.2
15 20.08 С 4 500 м дождь {туман} туман ?/? +11.9 +11.0 94 +10 +10 1021.0 1020.2
18 20.08 С 4 500 м дождь {туман} ?/? +11.8 +11.0 95 +10 +10 1020.9 1020.2
21 20.08 С 4 500 м сильн. дождь {туман} туман ?/? +11.7 +11.0 95 +9 +9 1021.1 1020.4 +11.6 15
00 21.08 С 3 500 м ливневой дождь туман ?/? +12.0 +11.3 95 +10 +10 1021.5 1020.7
03 21.08 СВ 4 500 м слаб. ливневой дождь {туман} ?/? +11.9 +11.1 95 +10 +10 1021.4 1020.7
06 21.08 С 2 500 м слаб. морось ?/? +12.4 +11.6 95 +11 +11 1021.0 1020.3
09 21.08 С 2 500 м туман ?/? +12.4 +11.4 94 +11 +11 1020.7 1019.9 +12.5 11
12 21.08 С 1 500 м слаб. морось {туман} туман ?/? +12.1 +11.4 95 +12 +12 1020.5 1019.8
15 21.08 штиль 0 500 м слаб. морось {туман} ?/? +12.0 +11.3 95 +11 +11 1019.9 1019.2
18 21.08 штиль 0 500 м туман ?/? +11.7 +11.1 96 +11 +11 1019.2 1018.5
21 21.08 штиль 0 20 км в посл. час туман 10/10 300 м
[St]
+11.8 +11.2 96 +11 +11 1019.5 1018.8 +11.6 0.4
00 22.08 штиль 0 20 км {туман} 10/8 300 м
[St Ac inh]
+13.5 +11.2 86 +13 +14 1019.2 1018.5
03 22.08 Ю 2 50 км 10/4 300 м
[St Ac inh]
+13.8 +11.6 87 +13 +15 1019.0 1018.3
06 22.08 Ю 2 20 км 10/10 300 м
[St]
+13.0 +11.5 91 +12 +12 1018.7 1018.0
09 22.08 Ю 1 20 км 10/10 100 м
[St]
+12.0 +11.0 94 +12 +12 1018.9 1018.2 +14.0
12 22.08 штиль 0 20 км 10/10 300 м
[St]
+11.5 +10.6 94 +11 +11 1018.9 1018.2
15 22.08 штиль 0 20 км 10/10 300 м
[St]
+11.0 +10.0 94 +10 +10 1018.9 1018.2
18 22.08 штиль 0 10 км слаб. морось 10/10 100 м
[St]
+10.8 +9.9 94 +10 +10 1018.8 1018.1
21 22.08 ЮЗ 1 10 км слаб. морось 10/10 100 м
[St]
+10.7 +9.9 95 +10 +10 1019.0 1018.3 +10.6 0.0
00 23.08 Ю 2 500 м туман ?/? +11.9 +10.2 89 +11 +11 1018.9 1018.2 +10.6
03 23.08 ЮЗ 1 500 м туман ?/? +12.4 +10.1 86 +12 +12 1018.9 1018.2
06 23.08 ЮЗ 2 20 км {туман} 10/10 300 м
[St]
+13.2 +10.3 83 +12 +12 1018.4 1017.7

 

Местоположение метеостанции Аян (Хабаровский край, Россия): широта 56.45 долгота 138.10 высота над уровнем моря 8 м.

В архиве по умолчанию представлена погода в Аяне за последнюю неделю. Архивные данные за месяц целиком и за предыдущие месяцы, начиная с января 2011 года, Вы можете получить, выбрав интересующий диапазон дат из раскрывающегося списка и нажав кнопку "Ввод!".


*Определитесь, кто Вы:
робот инопланетянин человек

Внимание! Время в таблицах - всемирное. Для получения местного времени необходимо прибавить поправку, которая равна 10 ч.

Смотрите также архив погоды в соседних городах и на ближайших метеорологических станциях:

Погода в Нелькане (Хабаровский край, Россия) (180 км)
Погода в Большом Шантаре (Хабаровский край, Россия) (184 км)
Погода в Джане (Хабаровский край, Россия) (257 км)
Погода в Чумикане (Хабаровский край, Россия) (261 км)
Погода в Литке (Хабаровский край, Россия) (311 км)
Погода в Удском (Хабаровский край, Россия) (318 км)
Погода в Улье (Хабаровский край, Россия) (342 км)
Погода в Усть-Юдоме (Якутия, Россия) (352 км)
Погода в Ныврово (Сахалинская область, Россия) (369 км)
Погода в Югоренке (Якутия, Россия) (370 км)

Пояснения к столбцам:

Ветер - указаны скорость ветра в м/с - средняя за 10 мин, порывы в срок и между сроками (в фигурных скобках) и направление, откуда дует ветер: С - северный, СВ - северо-восточный, В - восточный, ЮВ - юго-восточный, Ю - южный, ЮЗ - юго-западный, З - западный, СЗ - северо-западный.
Видимость - горизонтальная дальность видимости в метрах или километрах. При видимости от 1 до 10 км при отсутствии осадков обычно наблюдается дымка, при ухудшении видимости до 1 км и менее - туман. В сухую погоду видимость может ухудшаться дымом, пылью или мглою.
Явления - указаны атмосферные явления, наблюдавшиеся в срок или в последний час перед сроком; фигурными скобками обозначены явления, наблюдавшиеся между сроками (за 1-3 часа до срока); квадратными скобками обозначены град или гололедные отложения с указанием их диаметра в мм.
Облачность - указаны через наклонную черту общая и нижняя облачность в баллах и высота нижней границы облаков в метрах; квадратными скобками обозначены формы облаков: Ci - перистые, Cs - перисто-слоистые, Cc - перисто-кучевые, Ac - высококучевые, As - высокослоистые, Sc - слоисто-кучевые, Ns - слоисто-дождевые, Cu - кучевые, Cb - кучево-дождевые. Подробнее классификацию облаков см. в Атласе облаков (PDF).
T - Температура воздуха - температура, измеренная на высоте 2 м над землей.
Td - Температура точки росы - температура, при понижении до которой содержащийся в воздухе водяной пар достигнет насыщения.
f - Относительная влажность воздуха - влажноcть воздуха, измеренная на высоте 2 м над землей.
Te - Эффективная температура - температура, которую ощущает одетый по сезону человек в тени. Характеристика душности погоды. При расчете учитывается влияние влажности воздуха и скорости ветра на теплоощущения человека.
Tes - Эффективная температура на солнце - температура, которую ощущает человек, с поправкой на солнечный нагрев. Характеристика знойности погоды. Зависит от высоты солнца над горизонтом, облачности и скорости ветра. Ночью, в пасмурную погоду, а также при ветре 12 м/с и более поправка равна нулю.
P - Атмосферное давление - приведенное к уровню моря атмосферное давление.
Po - Атмосферное давление - измеренное на уровне метеостанции атмосферное давление.
Tmin - Минимальная температура - минимум температуры воздуха на высоте 2 м над землей.
Tmax - Максимальная температура - максимум температуры воздуха на высоте 2 м над землей.
R - Количество осадков - Количество выпавших осадков за период времени, мм. При наведении курсора мыши на число - период времени, за который выпало указанное количество осадков.
R24 - Количество осадков - Количество выпавших осадков за 24 часа, мм.
S - Снежный покров - Высота снежного покрова, см. При наведении курсора мыши на число - состояние снежного покрова и степень покрытия местности в баллах.